Location: Fontevrault
(47.1823°N, 0.0493°E)
Time: 10:44:43
(UTC+00:00)

BREEZE-M DEB (TANK) - Pass Details

Date: 16 June 2021
Orbit: 287 x 18721 km, 52.5° (Epoch: 26 July)

Event Time Altitude Azimuth Distance (km) Brightness Sun altitude
Rises 21:23:59 0° 298° (WNW) 4,073 8.5 -11.1°
Reaches altitude 10° 21:27:52 10° 295° (WNW) 2,067 6.8 -11.5°
Maximum altitude 21:31:30 63° 215° (SW) 406 2.0 -11.8°
Enters shadow 21:32:36 25° 139° (SE) 691 2.7 -11.9°
